Location: Melbourne
(37.8170°S, 144.9670°E)
Time: 15:37:57
(UTC+10:00)

CZ-3 R/B - Visible Passes

Search period start: 26 May 2015 00:00
Search period end: 05 June 2015 00:00
Orbit: 178 x 13087 km, 28.5° (Epoch: 25 May)

Date Brightness Start Highest point End Pass type
(mag) Time Alt. Az. Time Alt. Az. Time Alt. Az.
26 May 7.0 00:12:51 10° WNW 01:09:42 13° NNW 01:35:37 10° NNW visible
26 May 5.8 20:08:51 10° WNW 20:26:57 38° NNW 21:42:45 10° NNE visible
27 May 6.1 20:47:45 10° WNW 21:10:06 33° NNW 22:27:29 10° NNE visible
28 May 4.1 17:05:36 10° WNW 17:12:16 45° N 17:41:57 10° ENE visible
28 May 6.2 21:26:46 10° WNW 21:54:14 28° NNW 23:08:53 10° NNE visible
29 May 4.5 17:41:42 10° WNW 17:49:47 43° N 18:26:40 10° NE visible
29 May 6.4 22:06:30 10° WNW 22:40:03 22° NNW 23:46:31 10° N visible
30 May 4.9 18:17:14 10° WNW 18:27:01 39° N 19:10:59 10° NE visible
30 May 6.7 22:48:18 10° WNW 23:28:38 17° NNW 00:18:52 10° N visible
31 May 5.3 18:52:16 10° WNW 19:04:05 36° N 19:54:19 10° NE visible
31 May 6.8 23:36:49 10° NW 00:21:43 12° NNW 00:40:11 10° NNW visible
01 Jun 5.7 19:26:53 10° WNW 19:41:06 32° NNW 20:36:02 10° NNE visible
02 Jun 6.0 20:01:15 10° WNW 20:18:16 28° NNW 21:15:42 10° NNE visible
03 Jun 6.2 20:35:35 10° WNW 20:55:52 24° NNW 21:52:57 10° NNE visible
04 Jun 6.3 21:10:21 10° WNW 21:34:18 20° NNW 22:27:17 10° NNE visible
